Location: *
(10.4782°N, 67.2163°W)
Time: 23:01:15
(UTC+00:00)

H-2A R/B - Pass Details

Date: 23 May 2024
Orbit: 407 x 429 km, 97.4° (Epoch: 15 June)

Event Time Altitude Azimuth Distance (km) Brightness Sun altitude
Rises 09:23:05 0° 358° (N) 2,322 6.3 -10.6°
Reaches altitude 10° 09:25:09 10° 349° (N) 1,464 5.2 -10.1°
Maximum altitude 09:28:02 35° 282° (WNW) 682 2.9 -9.5°
Drops below altitude 10° 09:30:56 10° 214° (SW) 1,475 4.5 -8.8°
Enters shadow 09:31:28 - 211° (SSW) 1,687 4.8 -8.7°
